Meteo pe oră la Aarle

Astăzi, 15 Iunie, Marţi

Timp Temperatura Precipitaţii Vânt Presiune Umiditate
00:00 +16°C° 0 mm 2 m/s 763 mmHg 92%
01:00 +16°C° 0 mm 2 m/s 763 mmHg 93%
02:00 +15°C° 0 mm 2 m/s 763 mmHg 93%
03:00 +15°C° 0 mm 2 m/s 763 mmHg 94%
04:00 +16°C° 0 mm 3 m/s 763 mmHg 87%
05:00 +16°C° 0 mm 3 m/s 763 mmHg 81%
06:00 +17°C° 0 mm 3 m/s 764 mmHg 74%
07:00 +17°C° 0 mm 3 m/s 764 mmHg 71%
08:00 +18°C° 0 mm 3 m/s 764 mmHg 67%
09:00 +18°C° 0 mm 3 m/s 764 mmHg 64%
10:00 +19°C° 0 mm 3 m/s 764 mmHg 60%
11:00 +21°C° 0 mm 3 m/s 764 mmHg 57%
12:00 +22°C° 0 mm 3 m/s 764 mmHg 53%
13:00 +22°C° 0 mm 3 m/s 763 mmHg 52%
14:00 +24°C° 0 mm 3 m/s 763 mmHg 52%
15:00 +25°C° 0 mm 3 m/s 763 mmHg 51%
16:00 +24°C° 0 mm 3 m/s 762 mmHg 55%
17:00 +24°C° 0 mm 3 m/s 762 mmHg 59%
18:00 +22°C° 0 mm 3 m/s 762 mmHg 62%
19:00 +20°C° 0 mm 3 m/s 762 mmHg 67%
20:00 +19°C° 0 mm 3 m/s 762 mmHg 72%
21:00 +17°C° 0 mm 2 m/s 762 mmHg 77%
22:00 +17°C° 0 mm 2 m/s 762 mmHg 78%
23:00 +16°C° 0 mm 2 m/s 761 mmHg 79%

Mâine, 16 Iunie, Miercuri

Timp Temperatura Precipitaţii Vânt Presiune Umiditate
00:00 +16°C° 0 mm 2 m/s 761 mmHg 80%
01:00 +15°C° 0 mm 2 m/s 761 mmHg 82%
02:00 +15°C° 0 mm 2 m/s 761 mmHg 84%
03:00 +15°C° 0 mm 2 m/s 760 mmHg 85%
04:00 +16°C° 0 mm 2 m/s 760 mmHg 82%
05:00 +17°C° 0 mm 2 m/s 760 mmHg 79%
06:00 +19°C° 0 mm 2 m/s 760 mmHg 75%
07:00 +21°C° 0 mm 2 m/s 759 mmHg 71%
08:00 +23°C° 0 mm 2 m/s 759 mmHg 67%
09:00 +25°C° 0 mm 2 m/s 759 mmHg 63%
10:00 +27°C° 0 mm 2 m/s 758 mmHg 59%
11:00 +28°C° 0 mm 2 m/s 758 mmHg 55%
12:00 +29°C° 0 mm 1 m/s 758 mmHg 51%
13:00 +30°C° 0 mm 2 m/s 757 mmHg 48%
14:00 +30°C° 0 mm 2 m/s 757 mmHg 46%
15:00 +31°C° 0 mm 2 m/s 757 mmHg 43%
16:00 +30°C° 0 mm 2 m/s 757 mmHg 48%
17:00 +30°C° 0 mm 2 m/s 756 mmHg 53%
18:00 +29°C° 0 mm 1 m/s 756 mmHg 58%
19:00 +27°C° 0 mm 2 m/s 756 mmHg 63%
20:00 +26°C° 0 mm 2 m/s 756 mmHg 68%
21:00 +24°C° 0 mm 2 m/s 756 mmHg 73%
22:00 +23°C° 0 mm 2 m/s 756 mmHg 75%
23:00 +23°C° 0 mm 2 m/s 756 mmHg 77%

Poimâine, 17 Iunie, Joi

Timp Temperatura Precipitaţii Vânt Presiune Umiditate
00:00 +21°C° 0 mm 2 m/s 756 mmHg 79%
01:00 +21°C° 0 mm 2 m/s 756 mmHg 80%
02:00 +21°C° 0 mm 2 m/s 756 mmHg 81%
03:00 +20°C° 0 mm 2 m/s 756 mmHg 82%
04:00 +21°C° 0 mm 2 m/s 756 mmHg 78%
05:00 +22°C° 0 mm 3 m/s 756 mmHg 74%
06:00 +25°C° 0 mm 3 m/s 755 mmHg 71%
07:00 +26°C° 0 mm 3 m/s 755 mmHg 65%
08:00 +28°C° 0 mm 4 m/s 755 mmHg 60%
09:00 +30°C° 0 mm 4 m/s 755 mmHg 54%
10:00 +32°C° 0 mm 5 m/s 755 mmHg 52%
11:00 +33°C° 0 mm 5 m/s 755 mmHg 49%
12:00 +34°C° 0 mm 6 m/s 755 mmHg 46%
13:00 +33°C° 0.1 mm 6 m/s 755 mmHg 51%
14:00 +32°C° 0.1 mm 6 m/s 755 mmHg 57%
15:00 +29°C° 0.1 mm 6 m/s 755 mmHg 62%
16:00 +29°C° 0 mm 5 m/s 755 mmHg 65%
17:00 +28°C° 0 mm 5 m/s 756 mmHg 67%
18:00 +27°C° 0 mm 4 m/s 756 mmHg 70%
19:00 +25°C° 0 mm 4 m/s 756 mmHg 76%
20:00 +22°C° 0 mm 3 m/s 757 mmHg 82%
21:00 +20°C° 0 mm 3 m/s 757 mmHg 87%
22:00 +19°C° 0 mm 3 m/s 757 mmHg 90%
23:00 +18°C° 0 mm 2 m/s 757 mmHg 92%

18 Iunie, Vineri

Timp Temperatura Precipitaţii Vânt Presiune Umiditate
00:00 +18°C° 0 mm 2 m/s 757 mmHg 94%
01:00 +17°C° 0.1 mm 2 m/s 758 mmHg 95%
02:00 +17°C° 0.1 mm 2 m/s 758 mmHg 95%
03:00 +17°C° 0.1 mm 2 m/s 758 mmHg 96%
04:00 +17°C° 1.5 mm 2 m/s 758 mmHg 95%
05:00 +18°C° 1.5 mm 2 m/s 758 mmHg 95%
06:00 +18°C° 1.5 mm 3 m/s 758 mmHg 95%
07:00 +18°C° 0.2 mm 3 m/s 758 mmHg 94%
08:00 +19°C° 0.2 mm 3 m/s 758 mmHg 92%
09:00 +19°C° 0.2 mm 3 m/s 758 mmHg 91%
10:00 +22°C° 0 mm 3 m/s 758 mmHg 82%
11:00 +25°C° 0 mm 3 m/s 758 mmHg 74%
12:00 +27°C° 0 mm 3 m/s 758 mmHg 65%
13:00 +28°C° 0.9 mm 3 m/s 757 mmHg 66%
14:00 +28°C° 0.9 mm 3 m/s 757 mmHg 66%
15:00 +28°C° 0.9 mm 3 m/s 756 mmHg 67%
16:00 +27°C° 2.4 mm 3 m/s 756 mmHg 72%
17:00 +26°C° 2.4 mm 3 m/s 756 mmHg 77%
18:00 +25°C° 2.4 mm 3 m/s 757 mmHg 82%
19:00 +24°C° 0.5 mm 2 m/s 757 mmHg 85%
20:00 +21°C° 0.5 mm 2 m/s 757 mmHg 89%
21:00 +20°C° 0.5 mm 2 m/s 757 mmHg 92%
22:00 +20°C° 0 mm 3 m/s 757 mmHg 91%
23:00 +19°C° 0 mm 3 m/s 757 mmHg 91%

19 Iunie, Sâmbătă

Timp Temperatura Precipitaţii Vânt Presiune Umiditate
00:00 +19°C° 0 mm 4 m/s 757 mmHg 91%
01:00 +18°C° 0 mm 4 m/s 757 mmHg 90%
02:00 +18°C° 0 mm 4 m/s 757 mmHg 90%
03:00 +16°C° 0 mm 5 m/s 757 mmHg 90%
04:00 +16°C° 0 mm 5 m/s 758 mmHg 87%
05:00 +16°C° 0 mm 5 m/s 758 mmHg 84%
06:00 +16°C° 0 mm 5 m/s 758 mmHg 81%
07:00 +19°C° 0 mm 5 m/s 758 mmHg 75%
08:00 +20°C° 0 mm 6 m/s 758 mmHg 68%
09:00 +21°C° 0 mm 6 m/s 758 mmHg 62%
10:00 +23°C° 0 mm 5 m/s 758 mmHg 59%
11:00 +25°C° 0 mm 5 m/s 758 mmHg 55%
12:00 +26°C° 0 mm 4 m/s 758 mmHg 51%
13:00 +27°C° 0 mm 4 m/s 758 mmHg 51%
14:00 +27°C° 0 mm 3 m/s 757 mmHg 50%
15:00 +27°C° 0 mm 3 m/s 757 mmHg 50%
16:00 +26°C° 0 mm 3 m/s 757 mmHg 57%
17:00 +23°C° 0 mm 4 m/s 756 mmHg 65%
18:00 +22°C° 0 mm 4 m/s 756 mmHg 72%
19:00 +20°C° 1.2 mm 3 m/s 756 mmHg 79%
20:00 +19°C° 1.2 mm 3 m/s 756 mmHg 85%
21:00 +18°C° 1.2 mm 2 m/s 756 mmHg 92%
22:00 +17°C° 2.9 mm 2 m/s 756 mmHg 94%
23:00 +17°C° 2.9 mm 2 m/s 756 mmHg 95%

20 Iunie, Duminică

Timp Temperatura Precipitaţii Vânt Presiune Umiditate
00:00 +17°C° 2.9 mm 2 m/s 755 mmHg 97%
01:00 +17°C° 0 mm 2 m/s 755 mmHg 96%
02:00 +18°C° 0 mm 2 m/s 755 mmHg 96%
03:00 +18°C° 0 mm 3 m/s 755 mmHg 96%
04:00 +19°C° 0 mm 3 m/s 755 mmHg 94%
05:00 +20°C° 0 mm 4 m/s 755 mmHg 92%
06:00 +20°C° 0 mm 5 m/s 756 mmHg 90%
07:00 +21°C° 0 mm 5 m/s 756 mmHg 83%
08:00 +22°C° 0 mm 5 m/s 756 mmHg 76%
09:00 +25°C° 0 mm 5 m/s 756 mmHg 69%
10:00 +26°C° 0 mm 5 m/s 756 mmHg 64%
11:00 +27°C° 0 mm 5 m/s 756 mmHg 59%
12:00 +28°C° 0 mm 5 m/s 756 mmHg 53%
13:00 +28°C° 0 mm 5 m/s 756 mmHg 53%
14:00 +28°C° 0 mm 5 m/s 756 mmHg 53%
15:00 +28°C° 0 mm 6 m/s 756 mmHg 53%
16:00 +27°C° 0.1 mm 5 m/s 756 mmHg 58%
17:00 +26°C° 0.1 mm 5 m/s 756 mmHg 62%
18:00 +23°C° 0.1 mm 4 m/s 756 mmHg 67%
19:00 +22°C° 0 mm 3 m/s 757 mmHg 72%
20:00 +20°C° 0 mm 3 m/s 757 mmHg 78%
21:00 +18°C° 0 mm 2 m/s 757 mmHg 84%
22:00 +17°C° 0 mm 2 m/s 758 mmHg 85%
23:00 +16°C° 0 mm 2 m/s 758 mmHg 86%
Arată mai mult

Formular de consimțământ

Meteoprog și furnizorii noștri de servicii pot stoca și accesa date personale, precum cookies, identificatori de dispozitiv sau alte tehnologii similare pe dispozitivul dumneavoastră și procesa astfel de date pentru a personaliza conținutul și reclamele, dar și pentru a oferi caracteristici de social media și pentru a analiza traficul.

  • Stocarea și/sau accesarea informațiilor pe dispozitivul dumneavoastră

    Cookies, identificatori de dispozitiv sau alte informații pot fi stocate sau accesate pe dispozitiv în scopurile indicate mai sus.

  • Reclame și conținut personalizat, evaluarea reclamelor și a conținutului, informații despre audiențe și dezvoltarea produselor

    Reclamele și conținutul pot fi personalizate pe baza unui profil. Pot fi adăugate date suplimentare pentru a personaliza mai bine reclamele și conținutul. Performanța reclamelor și conținutului poate fi măsurată. Pot fi obținute informații despre utilizatorii care au văzut reclamele și conținutul. Aceste date pot fi utilizate pentru a dezvolta sau îmbunătăți experiența utilizatorilor, sistemele și software-ul.

Dând clic pe ‘Sunt de acord’, permiteți utilizarea cookie-urilor menționate, a identificatorilor de dispozitiv, balizelor web sau altor tehnologii similare. Setările pot fi modificate din browser-ul dispozitivului dumneavoastră.

În anumite scopuri, interesele legitime pot prima asupra consimțământului. Puteți citi mai multe informații în acest sens în Politica privind Confidențialitatea Datelor și Cookie.